Flag for Canada Weather past 2 weeks in Inuvik, Northwest Territories, Canada

Now
55 °F

Scattered clouds.


Feels Like: 52 °F
Forecast: 44 / 58 °F
Wind: 12 mph from Northeast

Location: Inuvik

Current Time: May 26, 2015 at 12:29:28 AM

Latest Report: May 26, 2015 at 12:00 AM


Visibility: 15 mi

Pressure: 30.10 "Hg

Humidity: 41%

Dew point: 32 °F

Location of InuvikLocation

Historic Weather in Inuvik — Graph

°F

Inuvik temperature yesterday

Maximum temperature yesterday: 66 °F (at 2:00 PM)
Minimum temperature yesterday: 45 °F (at 4:00 AM)
Average temperature yesterday: 57 °F

Past Weeks' High & Low Weather Summary

 TemperatureHumidityPressure
High81 °F (May 18, 5:00 PM)100% (May 12, 1:00 AM)30.33 "Hg (May 12, 1:00 AM)
Low25 °F (May 15, 4:00 AM)19% (May 25, 6:00 PM)29.71 "Hg (May 11, 4:00 PM)
Average52 °F55%30.05 "Hg
* Reported May 10 11:00 PM — May 25 11:00 PM, Inuvik, Weather by CustomWeather, © 2015

Note: Actual official high and low records may vary slightly from our data, if they occured in-between our weather recording intervals... More about our weather records

Advertising

Inuvik weather history for previous 24 hours

 ConditionsComfort  
Time TempWeatherWind HumidityBarometerVisibility
11:00 PM
Mon, May 25
59 °FScattered clouds.13 mph36%30.09 "Hg15 mi
10:00 PM63 °FPassing clouds.14 mph25%30.07 "Hg15 mi
9:00 PM64 °FPassing clouds.13 mph22%30.06 "Hg15 mi
8:00 PM66 °FPassing clouds.13 mph19%30.07 "Hg15 mi
7:00 PM66 °FPassing clouds.10 mph19%30.07 "Hg15 mi
6:00 PM66 °FSunny.13 mph19%30.08 "Hg15 mi
5:00 PM66 °FPassing clouds.13 mph24%30.08 "Hg15 mi
4:00 PM66 °FSunny.14 mph24%30.08 "Hg15 mi
3:00 PM66 °FPassing clouds.9 mph26%30.08 "Hg15 mi
2:00 PM66 °FPassing clouds.10 mph26%30.08 "Hg15 mi
1:00 PM63 °FPassing clouds.12 mph27%30.09 "Hg15 mi
12:00 PM59 °FPassing clouds.10 mph31%30.08 "Hg15 mi
11:00 AM57 °FPassing clouds.9 mph33%30.08 "Hg15 mi
10:00 AM55 °FPassing clouds.9 mph33%30.07 "Hg15 mi
9:00 AM52 °FPassing clouds.10 mph38%30.06 "Hg15 mi
8:00 AM50 °FPassing clouds.9 mph40%30.06 "Hg15 mi
7:00 AM46 °FPassing clouds.8 mph50%30.06 "Hg15 mi
6:00 AM45 °FPassing clouds.8 mph57%30.05 "Hg15 mi
5:00 AM45 °FSunny.13 mph57%30.04 "Hg15 mi
4:00 AM45 °FPassing clouds.12 mph61%30.03 "Hg15 mi
3:00 AM46 °FPassing clouds.13 mph57%30.02 "Hg15 mi
2:00 AM48 °FPassing clouds.13 mph54%30.01 "Hg15 mi
1:00 AM50 °FPassing clouds.14 mph54%30.00 "Hg15 mi
12:00 AM55 °FPassing clouds.13 mph44%29.99 "Hg15 mi
Weather by CustomWeather, © 2015

See weather overviewHow to use our weather pages